KE7JVX-3 Weather Reports


time (UTC)temp
C
wind
direction
speed
KPH
gust
KPH
rain 1hr
cm
rain 24hr
cm
rain mn
cm
humidity
%
barometer
mb
20260507064933 7 140 1.6 4.8 0.00 0.00 0.00 30 1013.4
20260507063928 7 0 0.0 3.2 0.00 0.00 0.00 29 1013.4
20260507063022 7 0 0.0 6.4 0.00 0.00 0.00 29 1013.4
20260507062928 7 0 0.0 6.4 0.00 0.00 0.00 29 1013.4
20260507061929 7 140 3.2 6.4 0.00 0.00 0.00 28 1013.4
20260507060930 7 140 3.2 6.4 0.00 0.00 0.00 28 1013.4
20260507055929 7 0 0.0 3.2 0.00 0.00 0.00 28 1013.4
20260507054928 7 140 1.6 6.4 0.00 0.00 0.00 28 1013.4
20260507053928 7 126 3.2 4.8 0.00 0.00 0.00 28 1013.4
20260507052928 7 0 0.0 6.4 0.00 0.00 0.00 28 1013.4
20260507052052 8 122 3.2 9.7 0.00 0.00 0.00 27 1013.3
20260507051928 8 122 3.2 9.7 0.00 0.00 0.00 27 1013.3
20260507050927 8 122 4.8 8.0 0.00 0.00 0.00 28 1013.3
20260507045929 8 121 4.8 11.3 0.00 0.00 0.00 27 1013.2
20260507044928 8 115 6.4 11.3 0.00 0.00 0.00 27 1013.2
20260507043928 8 92 4.8 12.9 0.00 0.00 0.00 28 1013.1
20260507042928 8 83 6.4 11.3 0.00 0.00 0.00 28 1013.1
20260507042034 8 82 6.4 11.3 0.00 0.00 0.00 28 1013.0
20260507041928 8 82 6.4 11.3 0.00 0.00 0.00 28 1013.0
20260507040928 7 86 6.4 11.3 0.00 0.00 0.00 29 1012.9
20260507035927 7 62 4.8 8.0 0.00 0.00 0.00 29 1012.8
20260507034928 7 62 4.8 8.0 0.00 0.00 0.00 29 1012.7
20260507034044 7 68 4.8 8.0 0.00 0.00 0.00 29 1012.6
20260507033928 7 68 4.8 8.0 0.00 0.00 0.00 29 1012.6
20260507032927 7 65 3.2 6.4 0.00 0.00 0.00 30 1012.6
20260507031927 7 63 4.8 8.0 0.00 0.00 0.00 31 1012.5
20260507030936 6 354 1.6 4.8 0.00 0.00 0.00 32 1012.3
20260507025927 6 343 1.6 6.4 0.00 0.00 0.00 34 1012.2
20260507025259 6 315 4.8 14.5 0.00 0.00 0.00 34 1012.1
20260507024927 6 315 4.8 14.5 0.00 0.00 0.00 34 1012.1
20260507024256 6 326 1.6 16.1 0.00 0.00 0.00 35 1012.1
20260507023927 6 326 1.6 16.1 0.00 0.00 0.00 35 1012.1
20260507022927 6 303 9.7 17.7 0.00 0.00 0.00 36 1012.0
20260507021928 6 293 12.9 17.7 0.00 0.00 0.00 35 1012.0
20260507020928 6 303 9.7 14.5 0.00 0.00 0.00 35 1012.0
20260507015928 7 306 9.7 17.7 0.00 0.00 0.00 34 1011.9
20260507014928 7 305 8.0 17.7 0.00 0.00 0.00 34 1011.9
20260507013927 7 304 8.0 17.7 0.00 0.00 0.00 33 1011.8
20260507012927 8 300 11.3 16.1 0.00 0.00 0.00 33 1011.8
20260507011927 8 304 9.7 16.1 0.00 0.00 0.00 31 1011.8
20260507010928 8 295 9.7 14.5 0.00 0.00 0.00 31 1011.8
20260507005927 9 306 8.0 19.3 0.00 0.00 0.00 32 1011.8
20260507004927 9 303 4.8 20.9 0.00 0.00 0.00 32 1011.7
20260507003927 9 300 9.7 19.3 0.00 0.00 0.00 31 1011.6
20260507002927 10 311 6.4 14.5 0.00 0.00 0.00 30 1011.5
20260507001927 10 272 4.8 11.3 0.00 0.00 0.00 30 1011.6
20260507000929 10 299 11.3 19.3 0.00 0.00 0.00 30 1011.5
20260506235928 10 308 4.8 19.3 0.00 0.00 0.00 29 1011.5
20260506234928 9 277 11.3 19.3 0.00 0.00 0.00 31 1011.5
20260506233928 10 267 8.0 17.7 0.00 0.00 0.00 29 1011.5
20260506232928 10 342 1.6 12.9 0.00 0.00 0.00 29 1011.3
20260506231928 10 316 4.8 17.7 0.00 0.00 0.00 30 1011.4
20260506230928 10 324 3.2 25.7 0.00 0.00 0.00 30 1011.4
20260506225928 9 269 14.5 27.4 0.00 0.00 0.00 30 1011.5
20260506224930 10 343 3.2 19.3 0.00 0.00 0.00 27 1011.5
20260506224251 10 338 6.4 16.1 0.00 0.00 0.00 28 1011.5
20260506223928 10 338 6.4 16.1 0.00 0.00 0.00 28 1011.5
20260506222928 10 351 3.2 14.5 0.00 0.00 0.00 30 1011.5
20260506221928 9 337 3.2 24.1 0.00 0.00 0.00 29 1011.6
20260506221318 9 302 11.3 24.1 0.00 0.00 0.00 30 1011.6
20260506220927 9 302 11.3 24.1 0.00 0.00 0.00 30 1011.6
20260506215927 10 304 3.2 19.3 0.00 0.00 0.00 28 1011.5
20260506214929 10 336 3.2 19.3 0.00 0.00 0.00 32 1011.6
20260506214327 9 301 12.9 27.4 0.00 0.00 0.00 32 1011.7
20260506213927 9 301 12.9 27.4 0.00 0.00 0.00 32 1011.7
20260506212927 9 273 9.7 22.5 0.00 0.00 0.00 34 1011.6
20260506211428 10 317 4.8 19.3 0.00 0.00 0.00 33 1011.7
20260506210650 9 335 4.8 14.5 0.00 0.00 0.00 34 1011.6
20260506210428 9 335 4.8 14.5 0.00 0.00 0.00 34 1011.6
20260506205428 8 279 8.0 17.7 0.00 0.00 0.00 33 1011.8
20260506204428 8 283 3.2 12.9 0.00 0.00 0.00 33 1011.8
20260506203720 7 322 3.2 16.1 0.00 0.00 0.00 34 1011.7
20260506203429 7 322 3.2 16.1 0.00 0.00 0.00 34 1011.7
20260506202428 7 243 4.8 24.1 0.00 0.00 0.00 34 1011.7
20260506201745 8 252 11.3 24.1 0.00 0.00 0.00 34 1011.7
20260506201429 8 252 11.3 24.1 0.00 0.00 0.00 34 1011.7
20260506200428 7 263 6.4 29.0 0.00 0.00 0.00 38 1011.7
20260506195430 7 259 11.3 20.9 0.00 0.00 0.00 35 1011.7
20260506194428 7 243 4.8 14.5 0.00 0.00 0.00 36 1011.8
20260506193428 7 249 3.2 16.1 0.00 0.00 0.00 40 1011.8
20260506192428 7 269 6.4 14.5 0.00 0.00 0.00 37 1011.8
20260506191429 7 240 9.7 17.7 0.00 0.00 0.00 40 1011.8
20260506190428 7 269 4.8 20.9 0.00 0.00 0.00 43 1011.7
20260506185428 7 273 9.7 17.7 0.00 0.00 0.00 41 1011.7
20260506184428 6 256 4.8 16.1 0.00 0.00 0.00 42 1011.7
20260506183434 6 262 4.8 14.5 0.00 0.00 0.00 43 1011.7
20260506182428 6 0 0.0 6.4 0.00 0.00 0.00 44 1011.8
20260506181428 5 309 4.8 14.5 0.00 0.00 0.00 43 1011.8
20260506180428 5 272 1.6 12.9 0.00 0.00 0.00 45 1011.7
20260506175428 5 282 3.2 14.5 0.00 0.00 0.00 48 1011.7
20260506174428 5 276 3.2 16.1 0.00 0.00 0.00 47 1011.7
20260506173428 4 304 3.2 11.3 0.00 0.00 0.00 49 1011.6
20260506172428 4 251 6.4 14.5 0.00 0.00 0.00 49 1011.5
20260506171428 4 274 6.4 12.9 0.00 0.00 0.00 53 1011.4
20260506170428 4 265 4.8 12.9 0.00 0.00 0.00 50 1011.3
20260506165428 4 192 3.2 14.5 0.00 0.00 0.00 52 1011.3
20260506164428 3 258 1.6 11.3 0.00 0.00 0.00 54 1011.3
20260506163429 3 235 3.2 11.3 0.00 0.00 0.00 50 1011.2
20260506162428 3 228 1.6 12.9 0.00 0.00 0.00 53 1011.1
20260506161428 3 220 1.6 6.4 0.00 0.00 0.00 53 1011.0
20260506160428 3 0 0.0 11.3 0.00 0.00 0.00 51 1011.0
20260506155428 3 171 3.2 9.7 0.00 0.00 0.00 50 1010.9
20260506154429 3 148 1.6 11.3 0.00 0.00 0.00 48 1010.8
20260506153429 3 0 0.0 4.8 0.00 0.00 0.00 45 1010.7
20260506152429 3 0 0.0 3.2 0.00 0.00 0.00 46 1010.8
20260506151431 3 0 0.0 4.8 0.00 0.03 0.00 41 1010.7
20260506150431 3 0 0.0 8.0 0.00 0.10 0.00 43 1010.5
20260506145428 3 0 0.0 9.7 0.00 0.20 0.00 40 1010.6
20260506144428 2 58 1.6 11.3 0.00 0.28 0.00 49 1010.4
20260506143428 2 313 1.6 6.4 0.00 0.38 0.00 46 1010.4
20260506142428 1 0 0.0 14.5 0.00 0.56 0.00 54 1010.3
20260506141428 1 308 3.2 9.7 0.00 0.61 0.00 53 1010.2
20260506140428 1 322 4.8 12.9 0.00 0.74 0.00 53 1010.2
20260506135428 1 349 4.8 16.1 0.00 0.76 0.00 54 1010.1
20260506134428 1 354 6.4 16.1 0.00 0.81 0.00 54 1010.0
20260506133428 1 317 8.0 16.1 0.00 0.81 0.00 54 1009.9
20260506132428 1 319 8.0 14.5 0.00 0.81 0.00 54 1009.8
20260506131428 0 338 6.4 14.5 0.00 0.84 0.00 56 1009.8
20260506130428 0 326 9.7 17.7 0.00 0.86 0.00 56 1009.7
20260506125428 0 315 9.7 19.3 0.00 0.94 0.00 56 1009.6
20260506124428 0 311 14.5 22.5 0.00 0.97 0.00 56 1009.5
20260506123428 0 309 14.5 20.9 0.00 0.99 0.00 57 1009.5
20260506122428 0 306 16.1 25.7 0.00 1.02 0.00 56 1009.3
20260506121428 0 314 16.1 22.5 0.00 1.02 0.00 57 1009.3
20260506120428 0 309 14.5 24.1 0.00 1.04 0.00 58 1009.2
20260506115428 0 302 16.1 25.7 0.00 1.04 0.00 57 1009.2
20260506114758 0 309 14.5 22.5 0.00 1.04 0.00 58 1009.4
20260506114428 0 309 14.5 22.5 0.00 1.04 0.00 58 1009.4
20260506113639 0 304 14.5 24.1 0.00 1.04 0.00 57 1009.2
20260506113428 0 304 14.5 24.1 0.00 1.04 0.00 57 1009.2
20260506112428 0 300 14.5 27.4 0.00 1.04 0.00 58 1009.2
20260506111546 0 300 17.7 25.7 0.00 1.04 0.00 57 1009.2
20260506111428 0 300 17.7 25.7 0.00 1.04 0.00 57 1009.2
20260506110539 0 300 17.7 25.7 0.00 1.04 0.00 57 1009.1
20260506110428 0 300 17.7 25.7 0.00 1.04 0.00 57 1009.1
20260506105433 0 294 16.1 25.7 0.00 1.04 0.00 58 1009.1
20260506104429 0 302 17.7 25.7 0.00 1.07 0.00 57 1009.1
20260506103429 0 296 16.1 25.7 0.00 1.07 0.00 57 1009.0
20260506102428 0 302 17.7 29.0 0.00 1.07 0.00 57 1008.9
20260506101430 0 298 19.3 29.0 0.00 1.09 0.00 57 1008.9
20260506100428 0 293 17.7 33.8 0.00 1.09 0.00 57 1008.8
20260506095630 0 287 24.1 40.2 0.00 1.09 0.00 57 1008.7
20260506095428 0 287 24.1 40.2 0.00 1.09 0.00 57 1008.7
20260506094428 0 291 20.9 40.2 0.00 1.09 0.00 57 1008.7
20260506093430 0 279 20.9 37.0 0.00 1.09 0.00 58 1008.6
20260506092610 0 286 25.7 37.0 0.00 1.12 0.00 59 1008.6
20260506092428 0 286 25.7 37.0 0.00 1.12 0.00 59 1008.6
20260506091804 0 284 22.5 37.0 0.00 1.12 0.00 59 1008.7
20260506091428 0 284 22.5 37.0 0.00 1.12 0.00 59 1008.7
20260506090720 0 287 22.5 35.4 0.00 1.14 0.00 59 1008.7
20260506090428 0 287 22.5 35.4 0.00 1.14 0.00 59 1008.7
20260506085428 0 290 19.3 37.0 0.00 1.14 0.00 60 1008.6
20260506084709 0 287 14.5 27.4 0.00 1.14 0.00 60 1008.7
20260506084428 0 287 14.5 27.4 0.00 1.14 0.00 60 1008.7
20260506083428 0 297 17.7 32.2 0.00 1.14 0.00 59 1008.8
20260506082428 0 290 17.7 27.4 0.00 1.17 0.00 58 1008.8
20260506082031 0 291 17.7 32.2 0.00 1.17 0.00 56 1008.9
20260506081428 0 291 17.7 32.2 0.00 1.17 0.00 56 1008.9
20260506080428 0 287 14.5 25.7 0.00 1.17 1.17 56 1008.9
20260506073428 0 292 20.9 32.2 0.00 1.22 1.17 53 1009.0
20260506072428 1 293 20.9 30.6 0.00 1.22 1.17 51 1009.1
20260506071430 1 290 17.7 32.2 0.00 1.22 1.17 52 1009.0
20260506070428 1 299 16.1 24.1 0.00 1.22 1.17 52 1009.0